Find Starlink 11396

NORAD ID: 62015 Int'l Des: 2024-213 Owner: SPXS Country: US Constellation: starlink operational
LEOCIRCULAR

当前视图

正在加载3D地球...

About Starlink 11396

Starlink 11396 (NORAD 62015) is a starlink constellation satellite (v2 mini d2c) launched Nov 18, 2024 by SPXS of US. It operates in LEO, CIRCULAR orbit with a mass of 960.00 kg.

关于 Starlink 11396

正在加载描述...

即将过境

Passes for default location (London). Set your location on the main map for personalized predictions.

高度历史

Loading altitude history...

两行轨道根数

1 62015U 24213H 26173.20525943 .00148994 00000-0 12093-2 0 9997
2 62015 53.1572 245.8056 0000993 102.6412 257.4717 15.69778193 91331
Epoch: Jun 22, 2026 • Age: 41 hours

当前状态

高度 376.8 km
速度 7.68 km/s
星下点 -52.43°S, 105.44°W
发射日期 Nov 18, 2024
运行时间 1.5 years
类型 internet

技术详情

分类 Payload
质量 960.00 kg
干质量 910.00 kg
总质量 960.00 kg
长度 0.30 m
直径 4.10 m
跨度 29.00 m
形状 Box + pan
制造商 SPXS
平台类型 Starlink V2MD
阶段状态 In Orbit
所有者/国家 SPXS/US

Most Searched